Hourly Weather Zydowo

Today, 27 February, Saturday

Time Temperature Precipitation Wind Pressure Humidity
00:00 +1°C° 0 mm 5 mps 754 mmHg 91%
01:00 +1°C° 0 mm 5 mps 755 mmHg 94%
02:00 0°C° 0 mm 4 mps 755 mmHg 94%
03:00 0°C° 0 mm 4 mps 755 mmHg 94%
04:00 0°C° 0 mm 4 mps 755 mmHg 95%
05:00 +1°C° 0 mm 3 mps 756 mmHg 95%
06:00 0°C° 0 mm 3 mps 756 mmHg 95%
07:00 0°C° 0 mm 3 mps 757 mmHg 95%
08:00 +1°C° 0 mm 3 mps 757 mmHg 90%
09:00 +2°C° 0 mm 3 mps 758 mmHg 86%
10:00 +3°C° 0 mm 3 mps 758 mmHg 81%
11:00 +4°C° 0 mm 3 mps 759 mmHg 78%
12:00 +4°C° 0 mm 4 mps 759 mmHg 74%
13:00 +5°C° 0 mm 4 mps 760 mmHg 70%
14:00 +4°C° 0 mm 4 mps 760 mmHg 71%
15:00 +4°C° 0 mm 3 mps 760 mmHg 72%
16:00 +4°C° 0 mm 3 mps 759 mmHg 73%
17:00 +3°C° 0 mm 2 mps 760 mmHg 79%
18:00 +2°C° 0 mm 2 mps 760 mmHg 84%
19:00 +1°C° 0 mm 2 mps 760 mmHg 90%
20:00 +1°C° 0 mm 2 mps 760 mmHg 90%
21:00 +1°C° 0 mm 2 mps 760 mmHg 90%
22:00 -1°C° 0 mm 2 mps 760 mmHg 91%
23:00 +1°C° 0 mm 2 mps 760 mmHg 92%

Tomorrow, 28 February, Sunday

Time Temperature Precipitation Wind Pressure Humidity
00:00 +1°C° 0 mm 2 mps 760 mmHg 93%
01:00 +1°C° 0 mm 3 mps 760 mmHg 94%
02:00 +1°C° 0 mm 3 mps 759 mmHg 95%
03:00 +1°C° 0 mm 3 mps 759 mmHg 96%
04:00 0°C° 0 mm 4 mps 759 mmHg 97%
05:00 0°C° 0 mm 4 mps 759 mmHg 97%
06:00 0°C° 0 mm 4 mps 759 mmHg 97%
07:00 0°C° 0 mm 4 mps 758 mmHg 97%
08:00 0°C° 0 mm 4 mps 758 mmHg 96%
09:00 +1°C° 0 mm 4 mps 758 mmHg 95%
10:00 +1°C° 0 mm 4 mps 758 mmHg 94%
11:00 +3°C° 0 mm 4 mps 759 mmHg 93%
12:00 +3°C° 0 mm 4 mps 759 mmHg 91%
13:00 +3°C° 0 mm 4 mps 759 mmHg 89%
14:00 +3°C° 0 mm 4 mps 759 mmHg 89%
15:00 +3°C° 0 mm 3 mps 759 mmHg 88%
16:00 +2°C° 0 mm 3 mps 759 mmHg 88%
17:00 +3°C° 0 mm 2 mps 759 mmHg 90%
18:00 +2°C° 0 mm 2 mps 759 mmHg 93%
19:00 +2°C° 0 mm 1 mps 759 mmHg 95%
20:00 +2°C° 0 mm 1 mps 760 mmHg 96%
21:00 +2°C° 0 mm 1 mps 760 mmHg 96%
22:00 +1°C° 0 mm 1 mps 760 mmHg 96%
23:00 +2°C° 0 mm 1 mps 760 mmHg 96%

Day after tomorrow, 1 March, Monday

Time Temperature Precipitation Wind Pressure Humidity
00:00 +2°C° 0 mm 1 mps 760 mmHg 95%
01:00 +2°C° 0 mm 1 mps 761 mmHg 94%
02:00 +2°C° 0 mm 1 mps 760 mmHg 94%
03:00 +2°C° 0 mm 1 mps 760 mmHg 93%
04:00 +2°C° 0 mm 1 mps 760 mmHg 93%
05:00 +2°C° 0 mm 1 mps 760 mmHg 93%
06:00 -1°C° 0 mm 2 mps 760 mmHg 93%
07:00 -1°C° 0 mm 2 mps 760 mmHg 93%
08:00 +2°C° 0 mm 2 mps 760 mmHg 88%
09:00 +4°C° 0 mm 2 mps 760 mmHg 83%
10:00 +5°C° 0 mm 2 mps 760 mmHg 78%
11:00 +5°C° 0 mm 3 mps 760 mmHg 76%
12:00 +7°C° 0 mm 3 mps 760 mmHg 74%
13:00 +8°C° 0 mm 3 mps 761 mmHg 72%
14:00 +8°C° 0 mm 3 mps 760 mmHg 73%
15:00 +8°C° 0 mm 3 mps 760 mmHg 75%
16:00 +8°C° 0 mm 3 mps 759 mmHg 77%
17:00 +5°C° 0 mm 3 mps 759 mmHg 81%
18:00 +4°C° 0 mm 3 mps 759 mmHg 86%
19:00 +4°C° 0 mm 2 mps 759 mmHg 90%
20:00 +4°C° 0 mm 2 mps 759 mmHg 91%
21:00 +2°C° 0 mm 3 mps 759 mmHg 92%
22:00 +2°C° 0 mm 3 mps 759 mmHg 93%
23:00 +2°C° 0 mm 3 mps 759 mmHg 93%

2 March, Tuesday

Time Temperature Precipitation Wind Pressure Humidity
00:00 +1°C° 0 mm 3 mps 759 mmHg 94%
01:00 +1°C° 0 mm 3 mps 759 mmHg 94%
02:00 +1°C° 0 mm 3 mps 758 mmHg 94%
03:00 +1°C° 0 mm 3 mps 758 mmHg 94%
04:00 0°C° 0 mm 3 mps 758 mmHg 94%
05:00 0°C° 0 mm 3 mps 758 mmHg 95%
06:00 +1°C° 0 mm 2 mps 758 mmHg 95%
07:00 +1°C° 0 mm 2 mps 758 mmHg 95%
08:00 +1°C° 0 mm 3 mps 758 mmHg 91%
09:00 +3°C° 0 mm 3 mps 758 mmHg 87%
10:00 +4°C° 0 mm 3 mps 758 mmHg 82%
11:00 +5°C° 0 mm 3 mps 758 mmHg 79%
12:00 +7°C° 0 mm 3 mps 758 mmHg 77%
13:00 +8°C° 0 mm 3 mps 758 mmHg 74%
14:00 +8°C° 0 mm 3 mps 758 mmHg 75%
15:00 +8°C° 0 mm 2 mps 758 mmHg 76%
16:00 +7°C° 0 mm 2 mps 758 mmHg 78%
17:00 +6°C° 0 mm 2 mps 758 mmHg 83%
18:00 +6°C° 0 mm 1 mps 758 mmHg 89%
19:00 +4°C° 0 mm 1 mps 758 mmHg 94%
20:00 +4°C° 0 mm 1 mps 758 mmHg 94%
21:00 +4°C° 0 mm 1 mps 758 mmHg 94%
22:00 +3°C° 0 mm 1 mps 758 mmHg 95%
23:00 +3°C° 0 mm 1 mps 758 mmHg 95%

3 March, Wednesday

Time Temperature Precipitation Wind Pressure Humidity
00:00 +3°C° 0 mm 1 mps 758 mmHg 95%
01:00 +3°C° 0 mm 1 mps 757 mmHg 94%
02:00 +3°C° 0 mm 1 mps 757 mmHg 94%
03:00 +3°C° 0 mm 1 mps 757 mmHg 94%
04:00 +2°C° 0 mm 1 mps 757 mmHg 94%
05:00 +2°C° 0 mm 1 mps 757 mmHg 94%
06:00 +2°C° 0 mm 1 mps 757 mmHg 94%
07:00 +2°C° 0 mm 1 mps 757 mmHg 94%
08:00 +3°C° 0 mm 1 mps 757 mmHg 90%
09:00 +5°C° 0 mm 1 mps 757 mmHg 85%
10:00 +6°C° 0 mm 1 mps 757 mmHg 81%
11:00 +7°C° 0 mm 1 mps 757 mmHg 76%
12:00 +8°C° 0 mm 1 mps 756 mmHg 71%
13:00 +9°C° 0 mm 2 mps 756 mmHg 67%
14:00 +10°C° 0 mm 1 mps 756 mmHg 68%
15:00 +9°C° 0 mm 1 mps 755 mmHg 69%
16:00 +9°C° 0 mm 1 mps 755 mmHg 70%
17:00 +8°C° 0 mm 1 mps 754 mmHg 76%
18:00 +7°C° 0 mm 1 mps 754 mmHg 81%
19:00 +5°C° 0 mm 1 mps 754 mmHg 87%
20:00 +5°C° 0 mm 1 mps 754 mmHg 88%
21:00 +4°C° 0 mm 1 mps 753 mmHg 89%
22:00 +4°C° 0 mm 1 mps 753 mmHg 91%
23:00 +4°C° 0 mm 1 mps 753 mmHg 91%

4 March, Thursday

Time Temperature Precipitation Wind Pressure Humidity
00:00 +2°C° 0 mm 2 mps 752 mmHg 92%
01:00 +2°C° 0 mm 2 mps 752 mmHg 93%
02:00 +2°C° 0 mm 2 mps 751 mmHg 94%
03:00 +1°C° 0 mm 2 mps 751 mmHg 94%
04:00 +1°C° 0 mm 2 mps 751 mmHg 95%
05:00 +1°C° 0 mm 2 mps 750 mmHg 96%
06:00 +1°C° 0 mm 2 mps 750 mmHg 96%
07:00 -1°C° 0 mm 3 mps 750 mmHg 96%
08:00 +1°C° 0 mm 3 mps 749 mmHg 92%
09:00 +2°C° 0 mm 3 mps 749 mmHg 87%
10:00 +3°C° 0 mm 4 mps 749 mmHg 83%
11:00 +3°C° 0 mm 3 mps 749 mmHg 84%
12:00 +2°C° 0 mm 3 mps 749 mmHg 84%
13:00 +2°C° 0 mm 3 mps 749 mmHg 84%
14:00 +2°C° 0 mm 3 mps 749 mmHg 84%
15:00 +3°C° 0 mm 2 mps 749 mmHg 84%
16:00 +3°C° 0 mm 2 mps 748 mmHg 84%
17:00 +3°C° 0 mm 2 mps 748 mmHg 85%
18:00 +3°C° 0 mm 1 mps 749 mmHg 86%
19:00 +3°C° 0 mm 1 mps 749 mmHg 87%
20:00 +3°C° 0 mm 1 mps 749 mmHg 89%
21:00 +2°C° 0 mm 2 mps 749 mmHg 91%
22:00 +2°C° 0 mm 2 mps 749 mmHg 92%
23:00 +1°C° 0 mm 3 mps 749 mmHg 90%
Show more